Location: Unspecified
(35.3830°S, 0.0000°E)
Time: 03:21:04
(UTC+00:00)

Hubble Space Telescope - Visible Passes

Search period start: 23 October 2019 00:00
Search period end: 02 November 2019 00:00
Orbit: 536 x 540 km, 28.5° (Epoch: 21 October)

Date Brightness Start Highest point End Pass type
(mag) Time Alt. Az. Time Alt. Az. Time Alt. Az.
23 Oct 2.5 19:20:51 10° NNW 19:23:26 16° NNE 19:24:13 15° NNE visible
24 Oct 2.4 19:09:49 10° NNW 19:12:45 19° NNE 19:14:40 14° NE visible
24 Oct 3.5 20:49:46 10° WNW 20:50:01 11° WNW 20:50:01 11° WNW visible
25 Oct 2.3 18:58:53 10° NW 19:02:05 21° NNE 19:04:59 11° ENE visible
25 Oct 3.0 20:39:07 10° WNW 20:40:20 17° NW 20:40:20 17° NW visible
26 Oct 2.2 18:48:02 10° NW 18:51:26 24° NNE 18:54:50 10° ENE visible
26 Oct 2.5 20:28:28 10° WNW 20:30:33 23° NW 20:30:33 23° NW visible
27 Oct 2.1 20:17:52 10° WNW 20:20:41 28° NNW 20:20:41 28° NNW visible
28 Oct 1.9 20:07:16 10° WNW 20:10:46 29° N 20:10:46 29° N visible
29 Oct 1.9 19:56:43 10° WNW 20:00:17 28° N 20:00:48 27° N visible
30 Oct 2.1 19:46:10 10° WNW 19:49:39 25° N 19:50:48 22° NNE visible
31 Oct 2.4 19:35:41 10° WNW 19:38:59 23° NNW 19:40:48 17° NNE visible
01 Nov 2.6 19:25:14 10° WNW 19:28:20 20° NNW 19:30:47 13° NNE visible
